Cedar Bluff, VA

11:52 AM EST on February 13, 2016 (GMT -0500)
Tazewell County

Weather History for KJFZ - June, 2013

Change the Weather History Date:

Saturday, June 8, 2013

  Actual Average (KBLF) Record (KBLF)
Temperature  
Mean Temperature 65 °F 68 °F  
Max Temperature 73 °F 77 °F 90 °F (2011)
Min Temperature 57 °F 59 °F 42 °F (1977)
Degree Days  
Heating Degree Days 0 1  
Month to date heating degree days 13  
Since 1 June heating degree days 13  
Since 1 July heating degree days 4579  
Cooling Degree Days 0 4  
Month to date cooling degree days 31  
Year to date cooling degree days 122  
Since 1 June cooling degree days 31  
Growing Degree Days 15 (Base 50)    
Moisture  
Dew Point 59 °F    
Average Humidity 82    
Maximum Humidity 100    
Minimum Humidity 62    
Precipitation  
Precipitation 0.09 in 0.14 in 0.62 in (2006)
Month to date precipitation 1.17  
Year to date precipitation 17.99  
Snow  
Snow 0.00 in - - ()
Month to date snowfall  
Since 1 June snowfall  
Since 1 July snowfall  
Snow Depth -    
Sea Level Pressure  
Sea Level Pressure 30.04 in    
Wind  
Wind Speed 2 mph (SW)    
Max Wind Speed 9 mph    
Max Gust Speed -    
Visibility 7 miles    
Events Fog , Rain    
T = Trace of Precipitation, MM = Missing Value Source: NWS Daily Summary

Daily Weather History Graph

Daily Weather History Graph

Search for Another Location

Airport or City:

Trip Planner

Search our weather history database for the weather conditions in past years. The results will help you decide how hot, cold, wet, or windy it might be!

Date:

Astronomy

Jun. 08, 2013 Rise Set
Actual Time 6:07 AM EDT 8:45 PM EDT
Civil Twilight 5:36 AM EDT 9:16 PM EDT
Nautical Twilight 4:58 AM EDT 9:54 PM EDT
Astronomical Twilight 4:15 AM EDT 10:37 PM EDT
Moon 6:12 AM EDT (6/8) 8:48 PM EDT (6/8)
Length of Visible Light 15h 39m
Length of Day
14h 38m
New Moon, 0% of the Moon is Illuminated
Jun 8
New Moon
Jun 16
First Quarter
Jun 23
Full
Jun 30
Last Quarter
Jul 8
New

Hourly Weather History & Observations

Time (EDT) Temp. Dew Point Humidity Pressure Visibility Wind Dir Wind Speed Gust Speed Precip Events Conditions
12:15 AM 59.4 °F 57.7 °F 94% 29.94 in 7.0 mi NE 3.5 mph - N/A   Mostly Cloudy
12:35 AM 59.2 °F 58.1 °F 96% 29.94 in 7.0 mi Calm Calm - N/A   Overcast
12:55 AM 59.2 °F 58.1 °F 96% 29.94 in 7.0 mi Calm Calm - N/A   Overcast
1:15 AM 59.0 °F 57.7 °F 96% 29.94 in 7.0 mi Calm Calm - N/A   Overcast
1:35 AM 59.0 °F 57.7 °F 96% 29.93 in 5.0 mi NNW 3.5 mph - N/A   Overcast
1:55 AM 58.6 °F 57.7 °F 97% 29.93 in 5.0 mi Calm Calm - N/A Rain Light Rain
2:15 AM 58.3 °F 58.1 °F 99% 29.93 in 3.0 mi Calm Calm - N/A Rain Light Rain
2:35 AM 58.6 °F 57.9 °F 97% 29.93 in 5.0 mi Calm Calm - N/A Rain Light Rain
2:55 AM 58.1 °F 57.7 °F 99% 29.93 in 2.5 mi Calm Calm - 0.01 in Rain Light Rain
3:15 AM 58.1 °F 57.7 °F 99% 29.93 in 3.0 mi Calm Calm - N/A   Overcast
3:35 AM 58.5 °F 57.7 °F 97% 29.94 in 5.0 mi Calm Calm - N/A Rain Light Rain
3:55 AM 58.1 °F 57.7 °F 99% 29.94 in 3.0 mi Calm Calm - N/A   Light Drizzle
4:15 AM 58.1 °F 57.7 °F 99% 29.94 in 3.0 mi Calm Calm - N/A Rain Light Rain
4:35 AM 58.1 °F 57.9 °F 99% 29.94 in 2.0 mi Calm Calm - 0.02 in Rain Rain
4:55 AM 58.1 °F 58.1 °F 100% 29.94 in 1.2 mi Calm Calm - 0.03 in Rain Light Rain
5:15 AM 58.1 °F 58.1 °F 100% 29.95 in 1.2 mi Calm Calm - 0.01 in Rain Light Rain
5:35 AM 58.1 °F 58.1 °F 100% 29.95 in 2.0 mi Calm Calm - 0.02 in Rain Rain
5:55 AM 57.9 °F 57.9 °F 100% 29.95 in 2.0 mi Calm Calm - 0.04 in Rain Light Rain
6:15 AM 57.7 °F 57.7 °F 100% 29.95 in 0.5 mi SE 3.5 mph - N/A Rain Light Rain
6:35 AM 57.6 °F 57.6 °F 100% 29.97 in 0.2 mi SSE 3.5 mph - 0.01 in Fog Fog
6:55 AM 57.7 °F 57.7 °F 100% 29.98 in 0.2 mi SSE 4.6 mph - 0.01 in Fog Fog
7:15 AM 57.4 °F 57.4 °F 100% 29.98 in 0.2 mi Calm Calm - N/A Fog Fog
7:35 AM 57.4 °F 57.4 °F 100% 29.99 in 0.2 mi Calm Calm - N/A Fog Fog
7:55 AM 57.0 °F 57.0 °F 100% 30.00 in 0.2 mi Calm Calm - N/A Fog Fog
8:15 AM 57.2 °F 57.2 °F 100% 30.00 in 1.0 mi Calm Calm - N/A   Overcast
8:35 AM 58.5 °F 58.1 °F 99% 30.01 in 2.5 mi Calm Calm - N/A   Mostly Cloudy
8:55 AM 59.5 °F 58.1 °F 95% 30.01 in 7.0 mi SSW 3.5 mph - N/A   Mostly Cloudy
9:15 AM 60.4 °F 58.5 °F 93% 30.02 in 7.0 mi SSW 3.5 mph - N/A   Mostly Cloudy
9:35 AM 61.2 °F 59.0 °F 93% 30.04 in 10.0 mi SSW 3.5 mph - N/A   Mostly Cloudy
9:55 AM 62.4 °F 59.5 °F 90% 30.04 in 10.0 mi Calm Calm - N/A   Overcast
10:15 AM 63.3 °F 59.9 °F 89% 30.05 in 10.0 mi SW 3.5 mph - N/A   Mostly Cloudy
10:35 AM 64.6 °F 59.7 °F 84% 30.05 in 10.0 mi WSW 3.5 mph - N/A   Mostly Cloudy
10:55 AM 66.2 °F 60.4 °F 82% 30.05 in 10.0 mi WSW 3.5 mph - N/A   Mostly Cloudy
11:15 AM 67.1 °F 60.4 °F 79% 30.06 in 10.0 mi West 5.8 mph - N/A   Scattered Clouds
11:35 AM 67.1 °F 59.5 °F 77% 30.07 in 10.0 mi West 6.9 mph - N/A   Scattered Clouds
12:15 PM 68.5 °F 59.9 °F 74% 30.08 in 10.0 mi West 9.2 mph - N/A   Mostly Cloudy
12:35 PM 69.1 °F 59.4 °F 71% 30.08 in 10.0 mi West 8.1 mph - N/A   Mostly Cloudy
12:55 PM 69.3 °F 59.5 °F 71% 30.08 in 10.0 mi SSW 4.6 mph - N/A   Mostly Cloudy
1:15 PM 68.5 °F 58.5 °F 70% 30.08 in 10.0 mi West 5.8 mph - N/A   Mostly Cloudy
1:35 PM 70.3 °F 60.4 °F 71% 30.08 in 10.0 mi WSW 5.8 mph - N/A   Overcast
1:55 PM 69.8 °F 58.1 °F 66% 30.08 in 10.0 mi WSW 6.9 mph - N/A   Mostly Cloudy
2:15 PM 71.1 °F 59.5 °F 67% 30.07 in 10.0 mi West 5.8 mph - N/A   Mostly Cloudy
2:35 PM 69.8 °F 58.8 °F 68% 30.07 in 10.0 mi West 4.6 mph - N/A   Overcast
2:55 PM 71.4 °F 59.7 °F 66% 30.07 in 10.0 mi North 3.5 mph - N/A   Scattered Clouds
3:15 PM 71.2 °F 58.8 °F 65% 30.07 in 10.0 mi Calm Calm - N/A   Mostly Cloudy
3:35 PM 73.0 °F 60.6 °F 65% 30.07 in 10.0 mi WSW 3.5 mph - N/A   Mostly Cloudy
3:55 PM 70.7 °F 59.2 °F 67% 30.08 in 10.0 mi West 3.5 mph - N/A   Mostly Cloudy
4:15 PM 70.2 °F 59.9 °F 70% 30.07 in 10.0 mi NW 3.5 mph - N/A   Overcast
4:35 PM 71.6 °F 60.1 °F 67% 30.08 in 10.0 mi WNW 3.5 mph - N/A   Mostly Cloudy
4:55 PM 72.5 °F 59.4 °F 63% 30.08 in 10.0 mi NW 4.6 mph - N/A   Scattered Clouds
5:15 PM 72.9 °F 59.2 °F 62% 30.08 in 10.0 mi WNW 4.6 mph - N/A   Clear
5:35 PM 72.1 °F 59.7 °F 65% 30.08 in 10.0 mi NW 4.6 mph - N/A   Mostly Cloudy
5:55 PM 73.0 °F 59.9 °F 63% 30.08 in 10.0 mi West 3.5 mph - N/A   Scattered Clouds
6:15 PM 72.1 °F 59.5 °F 64% 30.08 in 10.0 mi NW 3.5 mph - N/A   Scattered Clouds
6:35 PM 71.8 °F 58.6 °F 63% 30.08 in 10.0 mi Calm Calm - N/A   Scattered Clouds
6:55 PM 71.2 °F 59.4 °F 66% 30.08 in 10.0 mi Calm Calm - N/A   Mostly Cloudy
7:15 PM 71.4 °F 59.5 °F 66% 30.09 in 10.0 mi Calm Calm - N/A   Overcast
7:35 PM 71.4 °F 59.7 °F 66% 30.09 in 10.0 mi Calm Calm - N/A   Overcast
7:55 PM 71.2 °F 60.1 °F 68% 30.10 in 10.0 mi Calm Calm - N/A   Overcast
8:15 PM 70.9 °F 59.2 °F 66% 30.11 in 10.0 mi Calm Calm - N/A   Mostly Cloudy
8:35 PM 69.8 °F 59.9 °F 71% 30.11 in 10.0 mi Calm Calm - N/A   Scattered Clouds
8:55 PM 70.2 °F 58.8 °F 67% 30.12 in 10.0 mi Calm Calm - N/A   Mostly Cloudy
9:15 PM 70.0 °F 58.1 °F 66% 30.12 in 10.0 mi SE 3.5 mph - N/A   Overcast
9:35 PM 68.0 °F 58.5 °F 71% 30.13 in 10.0 mi ESE 3.5 mph - N/A   Scattered Clouds
9:55 PM 67.6 °F 60.1 °F 77% 30.13 in 10.0 mi SE 3.5 mph - N/A   Scattered Clouds
10:15 PM 66.6 °F 60.8 °F 82% 30.14 in 10.0 mi SE 3.5 mph - N/A   Scattered Clouds
10:35 PM 66.6 °F 59.7 °F 79% 30.15 in 10.0 mi SSE 4.6 mph - N/A   Clear
10:55 PM 66.6 °F 59.2 °F 77% 30.15 in 10.0 mi SE 3.5 mph - N/A   Scattered Clouds
11:15 PM 66.7 °F 59.0 °F 76% 30.16 in 10.0 mi South 4.6 mph - N/A   Scattered Clouds
11:35 PM 66.6 °F 59.0 °F 77% 30.16 in 10.0 mi SE 4.6 mph - N/A   Scattered Clouds
11:55 PM 67.1 °F 59.0 °F 75% 30.17 in 10.0 mi SSE 4.6 mph - N/A   Scattered Clouds